Location: Makanda
(37.6176°N, 89.2090°W)
Time: 13:24:54
(UTC+00:00)

Cosmos 1892 Rocket - Pass Details

Date: 23 September 2019
Orbit: 605 x 634 km, 82.5° (Epoch: 17 October)

Event Time Altitude Azimuth Distance (km) Brightness Sun altitude
Rises 01:33:15 0° 350° (N) 2,915 7.4 -20.2°
Reaches altitude 10° 01:35:30 10° 348° (NNW) 2,000 6.5 -20.6°
Maximum altitude 01:39:55 72° 265° (W) 653 3.7 -21.5°
Enters shadow 01:42:44 22° 184° (S) 1,370 5.2 -22.0°
